Location: Unspecified
(0.0000°N, 0.0000°E)
Time: 04:57:30
(UTC+00:00)

Vanguard 3 - Pass Details

Date: 20 April 2021
Orbit: 507 x 3262 km, 33.4° (Epoch: 17 May)

Event Time Altitude Azimuth Distance (km) Brightness Sun altitude
Rises 19:38:06 0° 227° (SW) 7,134 12.4 -24.3°
Reaches altitude 10° 19:43:27 10° 223° (SW) 5,921 11.9 -25.6°
Maximum altitude 20:00:14 55° 150° (SSE) 2,531 9.2 -29.6°
Enters shadow 20:02:37 50° 116° (ESE) 2,472 9.1 -30.2°
